Location: Anton
(37.3520°N, 87.3947°W)
Time: 00:07:51
(UTC+00:00)

BlueWalker 3 - Pass Details

Date: 06 December 2023
Orbit: 485 x 500 km, 53.2° (Epoch: 29 February)

Event Time Altitude Azimuth Distance (km) Brightness Sun altitude
Exits shadow 10:38:50 49° 108° (ESE) 645 2.8 -25.3°
Drops below altitude 10° 10:41:44 10° 126° (SE) 1,681 5.4 -24.7°
Enters shadow 11:39:08 -66° 326° (NW) 12,249 8.9 -13.7°
